Location: Aragüita
(10.0436°N, 67.8028°W)
Time: 01:41:40
(UTC+00:00)

Cosmos 1862 Rocket - Pass Details

Date: 16 January 2026
Orbit: 596 x 627 km, 82.5° (Epoch: 7 February)

Event Time Altitude Azimuth Distance (km) Brightness Sun altitude
Rises 00:06:16 0° 210° (SSW) 2,902 7.7 -23.4°
Reaches altitude 10° 00:08:55 10° 225° (SW) 1,996 7.0 -24.0°
Maximum altitude 00:12:20 22° 276° (W) 1,373 6.0 -24.8°
Drops below altitude 10° 00:15:45 10° 327° (NNW) 1,994 6.3 -25.6°
Sets 00:18:24 0° 342° (NNW) 2,897 7.0 -26.2°
